When you browse on this site, cookies collect data to enhance your experience and personalize the content and advertising you see.
Visit our Privacy Policy to learn more. By continuing to use the site, you agree to this use of cookies and data.
  • In Austria
  • List of Countries
  • For 7 days
  • Water Temperature
  • Weather Map
  • News
  • Weather Widgets
  • user-avatar
    Login

    Hourly Weather Río Gallegos

    Today, 11 December, Wednesday

    Time Temperature Precipitation Wind Pressure Humidity
    00:00 +8°C° 0 mm 7 mps 747 mmHg 71%
    01:00 +7°C° 0 mm 8 mps 746 mmHg 72%
    02:00 +7°C° 0.8 mm 8 mps 746 mmHg 77%
    03:00 +6°C° 0.8 mm 8 mps 746 mmHg 82%
    04:00 +5°C° 0.8 mm 9 mps 745 mmHg 87%
    05:00 +5°C° 2.8 mm 9 mps 746 mmHg 88%
    06:00 +5°C° 2.8 mm 8 mps 746 mmHg 89%
    07:00 +5°C° 2.8 mm 8 mps 747 mmHg 89%
    08:00 +5°C° 1 mm 8 mps 748 mmHg 82%
    09:00 +6°C° 1 mm 8 mps 748 mmHg 75%
    10:00 +7°C° 1 mm 8 mps 749 mmHg 68%
    11:00 +8°C° 0 mm 9 mps 749 mmHg 62%
    12:00 +10°C° 0 mm 9 mps 750 mmHg 56%
    13:00 +11°C° 0 mm 10 mps 750 mmHg 50%
    14:00 +11°C° 0 mm 10 mps 750 mmHg 49%
    15:00 +12°C° 0 mm 10 mps 751 mmHg 49%
    16:00 +12°C° 0 mm 11 mps 751 mmHg 48%
    17:00 +11°C° 0 mm 10 mps 752 mmHg 51%
    18:00 +10°C° 0 mm 9 mps 752 mmHg 54%
    19:00 +10°C° 0 mm 8 mps 753 mmHg 57%
    20:00 +9°C° 0 mm 8 mps 754 mmHg 60%
    21:00 +7°C° 0 mm 8 mps 754 mmHg 64%
    22:00 +6°C° 0 mm 8 mps 755 mmHg 67%
    23:00 +6°C° 0 mm 8 mps 755 mmHg 68%

    Tomorrow, 12 December, Thursday

    Time Temperature Precipitation Wind Pressure Humidity
    00:00 +6°C° 0 mm 8 mps 756 mmHg 69%
    01:00 +5°C° 0 mm 8 mps 756 mmHg 70%
    02:00 +5°C° 0 mm 8 mps 756 mmHg 70%
    03:00 +5°C° 0 mm 9 mps 756 mmHg 71%
    04:00 +5°C° 0 mm 9 mps 756 mmHg 71%
    05:00 +6°C° 0 mm 10 mps 756 mmHg 65%
    06:00 +7°C° 0 mm 11 mps 756 mmHg 59%
    07:00 +8°C° 0 mm 12 mps 756 mmHg 52%
    08:00 +9°C° 0 mm 11 mps 756 mmHg 50%
    09:00 +11°C° 0 mm 11 mps 756 mmHg 49%
    10:00 +11°C° 0 mm 11 mps 756 mmHg 47%
    11:00 +12°C° 0.1 mm 10 mps 755 mmHg 46%
    12:00 +12°C° 0.1 mm 10 mps 755 mmHg 45%
    13:00 +13°C° 0.1 mm 10 mps 754 mmHg 45%
    14:00 +13°C° 0 mm 9 mps 754 mmHg 44%
    15:00 +13°C° 0 mm 8 mps 754 mmHg 43%
    16:00 +15°C° 0 mm 8 mps 754 mmHg 42%
    17:00 +14°C° 0 mm 7 mps 753 mmHg 47%
    18:00 +13°C° 0 mm 6 mps 753 mmHg 52%
    19:00 +13°C° 0 mm 5 mps 753 mmHg 57%
    20:00 +12°C° 0.1 mm 3 mps 753 mmHg 60%
    21:00 +13°C° 0.1 mm 2 mps 753 mmHg 64%
    22:00 +12°C° 0.1 mm 1 mps 753 mmHg 67%
    23:00 +12°C° 0 mm 2 mps 752 mmHg 69%

    Day after tomorrow, 13 December, Friday

    Time Temperature Precipitation Wind Pressure Humidity
    00:00 +10°C° 0 mm 3 mps 752 mmHg 71%
    01:00 +9°C° 0 mm 5 mps 751 mmHg 72%
    02:00 +9°C° 0 mm 5 mps 750 mmHg 73%
    03:00 +9°C° 0 mm 6 mps 750 mmHg 73%
    04:00 +9°C° 0 mm 6 mps 749 mmHg 74%
    05:00 +9°C° 0 mm 6 mps 749 mmHg 71%
    06:00 +10°C° 0 mm 5 mps 748 mmHg 69%
    07:00 +12°C° 0 mm 5 mps 748 mmHg 67%
    08:00 +13°C° 0 mm 5 mps 748 mmHg 61%
    09:00 +14°C° 0 mm 4 mps 748 mmHg 56%
    10:00 +15°C° 0 mm 4 mps 748 mmHg 50%
    11:00 +15°C° 0.1 mm 5 mps 747 mmHg 48%
    12:00 +16°C° 0.1 mm 6 mps 747 mmHg 47%
    13:00 +16°C° 0.1 mm 6 mps 747 mmHg 45%
    14:00 +16°C° 0.3 mm 7 mps 747 mmHg 46%
    15:00 +16°C° 0.3 mm 7 mps 747 mmHg 47%
    16:00 +15°C° 0.3 mm 7 mps 747 mmHg 48%
    17:00 +15°C° 0.1 mm 6 mps 748 mmHg 49%
    18:00 +14°C° 0.1 mm 6 mps 748 mmHg 49%
    19:00 +14°C° 0.1 mm 6 mps 748 mmHg 50%
    20:00 +13°C° 0 mm 5 mps 748 mmHg 54%
    21:00 +12°C° 0 mm 3 mps 748 mmHg 58%
    22:00 +13°C° 0 mm 2 mps 748 mmHg 61%
    23:00 +11°C° 0.4 mm 3 mps 748 mmHg 68%

    14 December, Saturday

    Time Temperature Precipitation Wind Pressure Humidity
    00:00 +11°C° 0.4 mm 3 mps 748 mmHg 74%
    01:00 +10°C° 0.4 mm 4 mps 748 mmHg 80%
    02:00 +10°C° 0.9 mm 4 mps 748 mmHg 79%
    03:00 +10°C° 0.9 mm 4 mps 749 mmHg 77%
    04:00 +9°C° 0.9 mm 5 mps 749 mmHg 76%
    05:00 +9°C° 0.3 mm 6 mps 749 mmHg 75%
    06:00 +9°C° 0.3 mm 7 mps 749 mmHg 74%
    07:00 +9°C° 0.3 mm 8 mps 749 mmHg 73%
    08:00 +9°C° 0.1 mm 7 mps 749 mmHg 72%
    09:00 +10°C° 0.1 mm 7 mps 750 mmHg 70%
    10:00 +10°C° 0.1 mm 6 mps 750 mmHg 69%
    11:00 +11°C° 0.1 mm 6 mps 749 mmHg 68%
    12:00 +11°C° 0.1 mm 6 mps 749 mmHg 67%
    13:00 +13°C° 0.1 mm 6 mps 749 mmHg 67%
    14:00 +13°C° 0.3 mm 5 mps 749 mmHg 70%
    15:00 +12°C° 0.3 mm 5 mps 749 mmHg 73%
    16:00 +12°C° 0.3 mm 4 mps 749 mmHg 76%
    17:00 +12°C° 0.3 mm 5 mps 750 mmHg 73%
    18:00 +11°C° 0.3 mm 6 mps 750 mmHg 69%
    19:00 +12°C° 0.3 mm 7 mps 750 mmHg 66%
    20:00 +11°C° 0 mm 7 mps 751 mmHg 69%
    21:00 +10°C° 0 mm 7 mps 751 mmHg 72%
    22:00 +9°C° 0 mm 7 mps 752 mmHg 75%
    23:00 +8°C° 0 mm 7 mps 752 mmHg 75%

    15 December, Sunday

    Time Temperature Precipitation Wind Pressure Humidity
    00:00 +8°C° 0 mm 7 mps 752 mmHg 74%
    01:00 +7°C° 0 mm 8 mps 752 mmHg 73%
    02:00 +7°C° 0 mm 8 mps 753 mmHg 74%
    03:00 +7°C° 0 mm 9 mps 753 mmHg 75%
    04:00 +6°C° 0 mm 9 mps 754 mmHg 76%
    05:00 +7°C° 0 mm 10 mps 754 mmHg 71%
    06:00 +8°C° 0 mm 10 mps 754 mmHg 66%
    07:00 +9°C° 0 mm 11 mps 754 mmHg 61%
    08:00 +12°C° 0 mm 11 mps 754 mmHg 56%
    09:00 +13°C° 0 mm 10 mps 754 mmHg 51%
    10:00 +14°C° 0 mm 10 mps 754 mmHg 46%
    11:00 +15°C° 0 mm 9 mps 753 mmHg 45%
    12:00 +15°C° 0 mm 9 mps 753 mmHg 45%
    13:00 +16°C° 0 mm 9 mps 753 mmHg 45%
    14:00 +14°C° 0.1 mm 10 mps 753 mmHg 47%
    15:00 +14°C° 0.1 mm 11 mps 753 mmHg 49%
    16:00 +13°C° 0.1 mm 12 mps 753 mmHg 51%
    17:00 +13°C° 0 mm 11 mps 753 mmHg 53%
    18:00 +12°C° 0 mm 10 mps 754 mmHg 55%
    19:00 +11°C° 0 mm 10 mps 754 mmHg 57%
    20:00 +11°C° 0 mm 9 mps 754 mmHg 60%
    21:00 +10°C° 0 mm 8 mps 754 mmHg 64%
    22:00 +9°C° 0 mm 7 mps 754 mmHg 67%
    23:00 +9°C° 0 mm 8 mps 754 mmHg 67%

    16 December, Monday

    Time Temperature Precipitation Wind Pressure Humidity
    00:00 +7°C° 0 mm 8 mps 754 mmHg 68%
    01:00 +7°C° 0 mm 9 mps 754 mmHg 68%
    02:00 +7°C° 0 mm 8 mps 754 mmHg 69%
    03:00 +8°C° 0 mm 7 mps 755 mmHg 71%
    04:00 +7°C° 0 mm 6 mps 755 mmHg 73%
    05:00 +9°C° 0 mm 7 mps 754 mmHg 68%
    06:00 +10°C° 0 mm 7 mps 754 mmHg 63%
    07:00 +11°C° 0 mm 8 mps 754 mmHg 59%
    08:00 +12°C° 0 mm 7 mps 753 mmHg 55%
    09:00 +14°C° 0 mm 6 mps 753 mmHg 52%
    10:00 +15°C° 0 mm 5 mps 752 mmHg 49%
    11:00 +15°C° 0 mm 7 mps 751 mmHg 51%
    12:00 +15°C° 0 mm 8 mps 750 mmHg 53%
    13:00 +14°C° 0 mm 10 mps 749 mmHg 55%
    14:00 +15°C° 0 mm 9 mps 748 mmHg 55%
    15:00 +15°C° 0 mm 9 mps 747 mmHg 55%
    16:00 +15°C° 0 mm 8 mps 746 mmHg 55%
    17:00 +15°C° 0 mm 8 mps 745 mmHg 55%
    18:00 +15°C° 0 mm 8 mps 744 mmHg 56%
    19:00 +15°C° 0 mm 9 mps 742 mmHg 56%
    20:00 +13°C° 0.1 mm 8 mps 741 mmHg 57%
    21:00 +14°C° 0.1 mm 7 mps 740 mmHg 58%
    22:00 +14°C° 0.1 mm 6 mps 739 mmHg 59%
    23:00 +12°C° 0 mm 8 mps 739 mmHg 61%
    Show more